Regional Weather Roundup
Issued by NWS Cleveland, OH

Home | Current Version | Previous Version | Graphics & Text | Print | Product List | Glossary On
Versions: 1 2 3 4 5 6 7 8 9 10 11 12 13 14 15 16 17 18 19 20 21 22 23 24 25 26 27 28 29 30 31 32 33 34 35 36 37 38 39 40 41 42 43 44 45 46 47 48 49 50
218
ASUS41 KCLE 201012
RWRCLE
OHIO REGIONAL WEATHER ROUNDUP
NATIONAL WEATHER SERVICE WILMINGTON, OH
500 AM EST MON NOV 20 2017

NOTE: "FAIR" INDICATES FEW OR NO CLOUDS BELOW 12,000 FEET WITH NO
SIGNIFICANT WEATHER AND/OR OBSTRUCTIONS TO VISIBILITY.

OHZ001>008-015>018-024>027-034-035-043-044-201100-
   NORTHWEST OHIO

CITY           SKY/WX    TMP DP  RH WIND       PRES   REMARKS
DEFIANCE       FAIR      28  21  75 SW8       30.09S WCI  20
FINDLAY        FAIR      28  21  75 SW10      30.10R WCI  19
TOLEDO EXPRESS FAIR      30  22  72 SW10      30.07S WCI  21
TOLEDO EXEC    MOCLDY    29  23  78 SW13      30.09S WCI  19
LIMA           FAIR      26  23  88 SW9       30.11S WCI  17
$$

OHZ009>014-019>023-028>033-038-089-201100-
   NORTHEAST OHIO

CITY           SKY/WX    TMP DP  RH WIND       PRES   REMARKS
CLE-HOPKINS    FAIR      30  24  78 SW8       30.10S WCI  22
CLE-LAKEFRONT  CLOUDY    32  23  69 SW15      30.08R WCI  22
CUY CO. ARPT   NOT AVBL
LORAIN-ELYRIA  FAIR      28  20  71 W10       30.09S WCI  19
ASHTABULA      LGT SNOW  31  26  82 SW9       30.04R WCI  23
AKRON-CANTON   FAIR      28  21  75 SW10      30.08S WCI  19
WOOSTER        FAIR      26  22  84 SW7       30.10S WCI  18
MANSFIELD      FAIR      25  23  92 SW9       30.09R WCI  15
YOUNGSTOWN     CLOUDY    30  23  75 SW15      30.05R WCI  19
$$

OHZ042-051>053-060>062-070>072-077>081-201100-
  SOUTHWEST OHIO

CITY           SKY/WX    TMP DP  RH WIND       PRES   REMARKS
CINC-COVINGTON FAIR      25  23  92 S3        30.18R
CINC-LUNKEN    FAIR      25  23  92 S5        30.22R WCI  19
HAMILTON       FAIR      24  22  91 CALM      30.20R
DAYTON         FAIR      24  23  96 S7        30.15S WCI  16
WRIGHT-PAT AFB FAIR      24  21  90 S7        30.15S WCI  15
DAYTON GENERAL FAIR      23  20  88 S6        30.16R WCI  16
WILMINGTON     FAIR      24  22  91 SW7       30.16R WCI  16
$$

OHZ036-037-039>041-045>050-054>059-063>069-073>076-082>088-201100-
  CENTRAL AND SOUTHEAST OHIO

CITY           SKY/WX    TMP DP  RH WIND       PRES   REMARKS
COLUMBUS       FAIR      27  24  89 SW8       30.16R WCI  19
OSU AIRPORT    FAIR      25  23  92 SW6       30.15R WCI  18
BOLTON FIELD   FAIR      24  22  93 S3        30.16R
RICKENBACK AFB FAIR      25  24  94 S6        30.17R WCI  18
NEWARK         FAIR      27  22  81 SW5       30.15R WCI  22
MARION         FAIR      25  21  85 SW7       30.13R WCI  17
LANCASTER      FAIR      26  22  84 SW7       30.16S WCI  18
ZANESVILLE     FAIR      28  21  75 SW6       30.15S WCI  22
NEW PHILLY     FAIR      30  21  69 SW7       30.14R WCI  23
$$




USA.gov is the U.S. government's official web portal to all federal, state and local government web resources and services.